International Virtual Aviation Organisation

Russian Federation and Kazakhstan MCD

 

Карточка аэропорта UAII

Внимание!
Информация на этой странице в стадии наполнения.
Если вы не увидели какой-то информации, или заметили неточность - пожалуйста сообщите нам!
Спасибо!
Команда RU-STAFF
Название аэропортаШымкент
Название аэропорта (англ.)Shymkent
Превышение1389 ft. (423.4 m.)
Координаты42°21.348', 69°28.734'
Высота перехода5000
Эшелон переходаFL70
Коды ответчика3430-3437, 3530-3537
Зона ОрВДШымкент РПИ (UAII)
Данные METARUAII 250530Z 14002MPS 110V190 CAVOK 02/M08 Q1026 R10/0///70 NOSIG RMK QFE734/0979
Проноз погоды (TAF)UAII 242300Z 2500/2524 30003G08MPS 2000 BR SCT040CB BKN100 TX06/2509Z TNM07/2502Z TEMPO 2500/2505 VRB01MPS 0500 FZFG VV002 BECMG 2505/2507 17003G08MPS 6000 NSW
NOTAMshow/hide NOTAM
AWOS   TABLE

Информация о ВПП

ВПП Длина ВПП (м.) Покрытие Курс ВПП Частота ILS
103300Железобетон106111.7
283300Железобетон286110.3

Диспетчерские позиции




Спутниковое изображение